Time,TemperatureF,DewpointF,PressureIn,WindDirection,WindDirectionDegrees,WindSpeedMPH,WindSpeedGustMPH,Humidity,HourlyPrecipIn,Conditions,Clouds,dailyrainin,SoftwareType,DateUTC
2013-05-27 00:01:00,51.6,44.3,30.12,SSW,202,0.0,0.0,76,0.00,CLR,,0.00,WeatherDisplay:10.37,2013-05-26 14:01:00,
2013-05-27 00:06:00,51.6,44.3,30.12,SSW,202,0.0,0.0,76,0.00,CLR,,0.00,WeatherDisplay:10.37,2013-05-26 14:06:00,
2013-05-27 00:11:00,51.4,44.1,30.12,SSW,202,0.0,0.0,76,0.00,CLR,,0.00,WeatherDisplay:10.37,2013-05-26 14:11:00,
2013-05-27 00:16:00,51.4,44.1,30.12,SSW,202,0.0,0.0,76,0.00,CLR,,0.00,WeatherDisplay:10.37,2013-05-26 14:16:00,
2013-05-27 00:21:00,51.4,44.1,30.12,SSW,202,0.0,0.0,76,0.00,CLR,,0.00,WeatherDisplay:10.37,2013-05-26 14:21:00,
2013-05-27 00:26:00,51.3,44.0,30.12,SSW,202,0.0,0.0,76,0.00,CLR,,0.00,WeatherDisplay:10.37,2013-05-26 14:26:00,
2013-05-27 00:31:00,51.1,43.8,30.13,SSW,202,0.0,0.0,76,0.00,CLR,,0.00,WeatherDisplay:10.37,2013-05-26 14:31:00,
2013-05-27 00:36:00,51.1,43.8,30.13,SSW,202,0.0,0.0,76,0.00,CLR,,0.00,WeatherDisplay:10.37,2013-05-26 14:36:00,
2013-05-27 00:41:00,51.1,43.8,30.13,SSW,202,0.0,0.0,76,0.00,CLR,,0.00,WeatherDisplay:10.37,2013-05-26 14:41:00,
2013-05-27 00:46:00,50.9,43.6,30.13,SSW,202,0.0,0.0,76,0.00,CLR,,0.00,WeatherDisplay:10.37,2013-05-26 14:46:00,
2013-05-27 00:51:00,50.7,43.4,30.13,SSW,202,0.0,0.0,76,0.00,CLR,,0.00,WeatherDisplay:10.37,2013-05-26 14:51:00,
2013-05-27 00:56:00,50.7,43.4,30.13,SSW,202,0.0,0.0,76,0.00,CLR,,0.00,WeatherDisplay:10.37,2013-05-26 14:56:00,
2013-05-27 01:01:00,50.7,43.4,30.13,SSW,202,0.0,0.0,76,0.00,CLR,,0.00,WeatherDisplay:10.37,2013-05-26 15:01:00,
2013-05-27 01:06:00,50.5,43.3,30.13,SSW,202,0.0,0.0,76,0.00,CLR,,0.00,WeatherDisplay:10.37,2013-05-26 15:06:00,
2013-05-27 01:11:00,50.5,43.3,30.13,SSW,202,0.0,0.0,76,0.00,CLR,,0.00,WeatherDisplay:10.37,2013-05-26 15:11:00,
2013-05-27 01:16:00,50.4,43.1,30.13,SSW,202,0.0,0.0,76,0.00,CLR,,0.00,WeatherDisplay:10.37,2013-05-26 15:16:00,
2013-05-27 01:21:00,50.2,42.9,30.13,SSW,202,0.0,0.0,76,0.00,CLR,,0.00,WeatherDisplay:10.37,2013-05-26 15:21:00,
2013-05-27 01:25:00,50.2,42.9,30.14,SSW,202,0.0,0.0,76,0.00,CLR,,0.00,WeatherDisplay:10.37,2013-05-26 15:25:00,
2013-05-27 01:31:00,50.1,42.8,30.13,SSW,202,0.0,0.0,76,0.00,CLR,,0.00,WeatherDisplay:10.37,2013-05-26 15:31:00,
2013-05-27 01:36:00,49.9,42.6,30.13,South,190,0.0,0.0,76,0.00,CLR,,0.00,WeatherDisplay:10.37,2013-05-26 15:36:00,
2013-05-27 01:41:00,49.8,42.6,30.14,South,187,0.0,0.0,76,0.00,CLR,,0.00,WeatherDisplay:10.37,2013-05-26 15:41:00,
2013-05-27 01:46:00,49.8,42.9,30.13,SSW,198,0.0,0.0,77,0.00,CLR,,0.00,WeatherDisplay:10.37,2013-05-26 15:46:00,
2013-05-27 01:51:00,49.8,42.9,30.13,SSW,202,0.0,0.0,77,0.00,CLR,,0.00,WeatherDisplay:10.37,2013-05-26 15:51:00,
2013-05-27 01:55:00,50.0,43.4,30.13,SSW,202,0.0,0.0,78,0.00,CLR,,0.00,WeatherDisplay:10.37,2013-05-26 15:55:00,
2013-05-27 02:01:00,50.2,43.6,30.14,SSW,202,0.0,0.0,78,0.00,CLR,,0.00,WeatherDisplay:10.37,2013-05-26 16:01:00,
2013-05-27 02:06:00,50.2,43.6,30.14,SSW,202,0.0,0.0,78,0.00,CLR,,0.00,WeatherDisplay:10.37,2013-05-26 16:06:00,
2013-05-27 02:11:00,50.2,43.6,30.14,SSW,202,0.0,0.0,78,0.00,CLR,,0.00,WeatherDisplay:10.37,2013-05-26 16:11:00,
2013-05-27 02:16:00,50.0,43.1,30.13,SSW,202,0.0,0.0,77,0.00,CLR,,0.00,WeatherDisplay:10.37,2013-05-26 16:16:00,
2013-05-27 02:20:00,49.8,42.9,30.14,SSW,202,0.0,0.0,77,0.00,CLR,,0.00,WeatherDisplay:10.37,2013-05-26 16:20:00,
2013-05-27 02:26:00,49.8,42.9,30.14,SSW,202,0.0,0.0,77,0.00,CLR,,0.00,WeatherDisplay:10.37,2013-05-26 16:26:00,
2013-05-27 02:31:00,49.7,42.8,30.14,SSW,202,0.0,0.0,77,0.00,CLR,,0.00,WeatherDisplay:10.37,2013-05-26 16:31:00,
2013-05-27 02:36:00,49.6,42.7,30.14,SSW,202,0.0,0.0,77,0.00,CLR,,0.00,WeatherDisplay:10.37,2013-05-26 16:36:00,
2013-05-27 02:41:00,49.6,42.7,30.14,SSW,202,0.0,0.0,77,0.00,CLR,,0.00,WeatherDisplay:10.37,2013-05-26 16:41:00,
2013-05-27 02:46:00,49.6,42.7,30.14,SSW,202,0.0,0.0,77,0.00,CLR,,0.00,WeatherDisplay:10.37,2013-05-26 16:46:00,
2013-05-27 02:51:00,49.5,42.5,30.15,SSW,195,0.0,0.0,77,0.00,CLR,,0.00,WeatherDisplay:10.37,2013-05-26 16:51:00,
2013-05-27 02:56:00,49.4,42.8,30.14,South,184,0.0,0.0,78,0.00,CLR,,0.00,WeatherDisplay:10.37,2013-05-26 16:56:00,
2013-05-27 03:01:00,49.3,42.7,30.15,South,180,0.0,0.0,78,0.00,CLR,,0.00,WeatherDisplay:10.37,2013-05-26 17:01:00,
2013-05-27 03:06:00,49.3,42.7,30.15,South,185,0.0,0.0,78,0.00,CLR,,0.00,WeatherDisplay:10.37,2013-05-26 17:06:00,
2013-05-27 03:11:00,49.3,42.7,30.14,SSW,196,0.0,0.0,78,0.00,CLR,,0.00,WeatherDisplay:10.37,2013-05-26 17:11:00,
2013-05-27 03:15:00,49.3,42.7,30.14,SSW,202,0.0,0.0,78,0.00,CLR,,0.00,WeatherDisplay:10.37,2013-05-26 17:15:00,
2013-05-27 03:20:00,49.3,42.7,30.15,SSW,202,0.0,0.0,78,0.00,CLR,,0.00,WeatherDisplay:10.37,2013-05-26 17:20:00,
2013-05-27 03:26:00,49.3,42.7,30.15,SSW,202,0.0,0.0,78,0.00,CLR,,0.00,WeatherDisplay:10.37,2013-05-26 17:26:00,
2013-05-27 03:31:00,49.3,42.7,30.15,SSW,202,0.0,0.0,78,0.00,CLR,,0.00,WeatherDisplay:10.37,2013-05-26 17:31:00,
2013-05-27 03:36:00,49.3,42.7,30.15,SSW,202,0.0,0.0,78,0.00,CLR,,0.00,WeatherDisplay:10.37,2013-05-26 17:36:00,
2013-05-27 03:41:00,49.2,42.6,30.15,SSW,192,0.0,0.0,78,0.00,CLR,,0.00,WeatherDisplay:10.37,2013-05-26 17:41:00,
2013-05-27 03:45:00,49.1,42.5,30.15,SE,139,0.0,0.0,78,0.00,CLR,,0.00,WeatherDisplay:10.37,2013-05-26 17:45:00,
2013-05-27 03:51:00,48.9,42.4,30.15,ESE,110,0.0,0.0,78,0.00,CLR,,0.00,WeatherDisplay:10.37,2013-05-26 17:51:00,
2013-05-27 03:56:00,48.7,41.8,30.15,East,90,0.0,0.0,77,0.00,CLR,,0.00,WeatherDisplay:10.37,2013-05-26 17:56:00,
2013-05-27 04:00:00,48.7,41.8,30.15,NE,48,0.0,0.0,77,0.00,CLR,,0.00,WeatherDisplay:10.37,2013-05-26 18:00:00,
2013-05-27 04:05:00,48.6,41.7,30.15,North,353,0.0,0.0,77,0.00,CLR,,0.00,WeatherDisplay:10.37,2013-05-26 18:05:00,
2013-05-27 04:11:00,48.4,41.5,30.16,North,6,0.0,0.0,77,0.00,CLR,,0.00,WeatherDisplay:10.37,2013-05-26 18:11:00,
2013-05-27 04:15:00,48.4,41.5,30.16,NNE,25,0.0,0.0,77,0.00,CLR,,0.00,WeatherDisplay:10.37,2013-05-26 18:15:00,
2013-05-27 04:21:00,48.0,41.2,30.16,East,79,0.0,0.0,77,0.00,CLR,,0.00,WeatherDisplay:10.37,2013-05-26 18:21:00,
2013-05-27 04:26:00,48.0,41.2,30.16,ESE,108,0.0,0.0,77,0.00,CLR,,0.00,WeatherDisplay:10.37,2013-05-26 18:26:00,
2013-05-27 04:31:00,48.0,41.5,30.16,SE,142,0.0,0.0,78,0.00,CLR,,0.00,WeatherDisplay:10.37,2013-05-26 18:31:00,
2013-05-27 04:36:00,48.0,41.5,30.16,SSE,165,0.0,0.0,78,0.00,CLR,,0.00,WeatherDisplay:10.37,2013-05-26 18:36:00,
2013-05-27 04:41:00,47.8,41.3,30.16,SSE,158,0.0,0.0,78,0.00,CLR,,0.00,WeatherDisplay:10.37,2013-05-26 18:41:00,
2013-05-27 04:46:00,47.8,41.3,30.16,SE,133,0.0,0.0,78,0.00,CLR,,0.00,WeatherDisplay:10.37,2013-05-26 18:46:00,
2013-05-27 04:51:00,47.8,41.3,30.16,NE,56,0.0,0.0,78,0.00,CLR,,0.00,WeatherDisplay:10.37,2013-05-26 18:51:00,
2013-05-27 04:55:00,47.8,41.2,30.17,East,83,0.0,0.0,78,0.00,CLR,,0.00,WeatherDisplay:10.37,2013-05-26 18:55:00,
2013-05-27 05:00:00,47.7,41.2,30.17,ESE,105,0.0,0.0,78,0.00,CLR,,0.00,WeatherDisplay:10.37,2013-05-26 19:00:00,
2013-05-27 05:05:00,47.8,41.3,30.17,East,90,0.0,0.0,78,0.00,CLR,,0.00,WeatherDisplay:10.37,2013-05-26 19:05:00,
2013-05-27 05:11:00,47.8,41.3,30.18,East,100,0.0,0.0,78,0.00,CLR,,0.00,WeatherDisplay:10.37,2013-05-26 19:11:00,
2013-05-27 05:16:00,47.8,41.3,30.18,SE,129,0.0,0.0,78,0.00,CLR,,0.00,WeatherDisplay:10.37,2013-05-26 19:16:00,
2013-05-27 05:21:00,47.8,41.6,30.18,South,177,0.0,0.0,79,0.00,CLR,,0.00,WeatherDisplay:10.37,2013-05-26 19:21:00,
2013-05-27 05:25:00,47.8,41.6,30.18,SW,221,0.0,0.0,79,0.00,CLR,,0.00,WeatherDisplay:10.37,2013-05-26 19:25:00,
2013-05-27 05:31:00,48.0,41.8,30.19,SW,236,0.0,0.0,79,0.00,CLR,,0.00,WeatherDisplay:10.37,2013-05-26 19:31:00,
2013-05-27 05:35:00,48.0,41.8,30.19,SW,224,0.0,0.0,79,0.00,CLR,,0.00,WeatherDisplay:10.37,2013-05-26 19:35:00,
2013-05-27 05:41:00,48.0,41.8,30.19,SSW,207,0.0,0.0,79,0.00,CLR,,0.00,WeatherDisplay:10.37,2013-05-26 19:41:00,
2013-05-27 05:46:00,48.0,41.8,30.19,SSW,198,0.0,0.0,79,0.00,CLR,,0.00,WeatherDisplay:10.37,2013-05-26 19:46:00,
2013-05-27 05:51:00,48.0,41.8,30.19,SSW,194,0.0,0.0,79,0.00,CLR,,0.00,WeatherDisplay:10.37,2013-05-26 19:51:00,
2013-05-27 05:56:00,48.0,41.8,30.20,SW,220,0.0,0.0,79,0.00,CLR,,0.00,WeatherDisplay:10.37,2013-05-26 19:56:00,
2013-05-27 06:00:00,48.1,42.3,30.20,SW,236,0.0,0.0,80,0.00,CLR,,0.00,WeatherDisplay:10.37,2013-05-26 20:00:00,
2013-05-27 06:06:00,48.2,42.3,30.20,NNW,340,0.0,0.0,80,0.00,CLR,,0.00,WeatherDisplay:10.37,2013-05-26 20:06:00,
2013-05-27 06:11:00,48.1,42.2,30.20,NW,321,0.0,0.0,80,0.00,CLR,,0.00,WeatherDisplay:10.37,2013-05-26 20:11:00,
2013-05-27 06:16:00,48.0,42.1,30.21,West,276,0.0,0.0,80,0.00,CLR,,0.00,WeatherDisplay:10.37,2013-05-26 20:16:00,
2013-05-27 06:20:00,48.0,42.1,30.21,West,276,0.0,0.0,80,0.00,CLR,,0.00,WeatherDisplay:10.37,2013-05-26 20:20:00,
2013-05-27 06:25:00,48.0,42.1,30.21,WSW,255,0.0,0.0,80,0.00,CLR,,0.00,WeatherDisplay:10.37,2013-05-26 20:25:00,
2013-05-27 06:31:00,48.0,42.1,30.21,WSW,242,0.0,0.0,80,0.00,CLR,,0.00,WeatherDisplay:10.37,2013-05-26 20:31:00,
2013-05-27 06:35:00,48.2,42.3,30.22,SW,235,0.0,0.0,80,0.00,CLR,,0.00,WeatherDisplay:10.37,2013-05-26 20:35:00,
2013-05-27 06:40:00,48.0,42.1,30.21,SW,233,0.0,0.0,80,0.00,CLR,,0.00,WeatherDisplay:10.37,2013-05-26 20:40:00,
2013-05-27 06:45:00,48.2,42.3,30.22,SW,220,0.0,0.0,80,0.00,CLR,,0.00,WeatherDisplay:10.37,2013-05-26 20:45:00,
2013-05-27 06:51:00,48.2,42.6,30.22,West,262,0.0,0.0,81,0.00,CLR,,0.00,WeatherDisplay:10.37,2013-05-26 20:51:00,
2013-05-27 06:55:00,48.3,42.8,30.21,WNW,285,0.0,0.0,81,0.00,CLR,,0.00,WeatherDisplay:10.37,2013-05-26 20:55:00,
2013-05-27 07:00:00,48.4,42.8,30.22,West,262,0.0,0.0,81,0.00,CLR,,0.00,WeatherDisplay:10.37,2013-05-26 21:00:00,
2013-05-27 07:05:00,48.4,42.8,30.22,West,273,0.0,0.0,81,0.00,CLR,,0.00,WeatherDisplay:10.37,2013-05-26 21:05:00,
2013-05-27 07:11:00,48.4,42.8,30.22,NNW,340,0.0,0.0,81,0.00,CLR,,0.00,WeatherDisplay:10.37,2013-05-26 21:11:00,
2013-05-27 07:15:00,48.6,43.0,30.23,NNE,21,0.0,0.0,81,0.00,CLR,,0.00,WeatherDisplay:10.37,2013-05-26 21:15:00,
2013-05-27 07:21:00,48.5,43.0,30.23,North,356,0.0,0.0,81,0.00,CLR,,0.00,WeatherDisplay:10.37,2013-05-26 21:21:00,
2013-05-27 07:25:00,48.6,43.0,30.23,NW,322,0.0,0.0,81,0.00,CLR,,0.00,WeatherDisplay:10.37,2013-05-26 21:25:00,
2013-05-27 07:35:00,48.9,43.3,30.23,ENE,70,0.0,0.0,81,0.00,CLR,,0.00,WeatherDisplay:10.37,2013-05-26 21:35:00,
2013-05-27 07:40:00,49.2,44.0,30.23,NE,50,0.0,0.0,82,0.00,CLR,,0.00,WeatherDisplay:10.37,2013-05-26 21:40:00,
2013-05-27 07:45:00,49.6,44.3,30.24,NNW,331,0.0,0.0,82,0.00,CLR,,0.00,WeatherDisplay:10.37,2013-05-26 21:45:00,
2013-05-27 07:50:00,49.8,44.9,30.24,WNW,303,0.0,2.0,83,0.00,CLR,,0.00,WeatherDisplay:10.37,2013-05-26 21:50:00,
2013-05-27 07:55:00,49.9,44.9,30.24,NW,322,0.0,0.0,83,0.00,CLR,,0.00,WeatherDisplay:10.37,2013-05-26 21:55:00,
2013-05-27 08:00:00,50.2,45.2,30.24,North,3,0.0,0.0,83,0.00,CLR,,0.00,WeatherDisplay:10.37,2013-05-26 22:00:00,
2013-05-27 08:05:00,50.2,45.2,30.24,NNE,17,0.0,0.0,83,0.00,CLR,,0.00,WeatherDisplay:10.37,2013-05-26 22:05:00,
2013-05-27 08:10:00,50.4,45.2,30.25,WNW,301,0.0,0.0,82,0.00,CLR,,0.00,WeatherDisplay:10.37,2013-05-26 22:10:00,
2013-05-27 08:15:00,50.5,45.6,30.25,NW,314,0.0,0.0,83,0.00,CLR,,0.00,WeatherDisplay:10.37,2013-05-26 22:15:00,
2013-05-27 08:20:00,50.6,45.4,30.25,NNE,30,0.0,0.0,82,0.00,CLR,,0.00,WeatherDisplay:10.37,2013-05-26 22:20:00,
2013-05-27 08:25:00,50.7,45.7,30.25,NE,38,0.0,0.0,83,0.00,CLR,,0.00,WeatherDisplay:10.37,2013-05-26 22:25:00,
2013-05-27 08:30:00,50.7,45.4,30.25,ENE,62,0.0,0.0,82,0.00,CLR,,0.00,WeatherDisplay:10.37,2013-05-26 22:30:00,
2013-05-27 08:35:00,50.7,45.7,30.25,SE,128,0.0,0.0,83,0.00,CLR,,0.00,WeatherDisplay:10.37,2013-05-26 22:35:00,
2013-05-27 08:40:00,51.0,46.1,30.25,ESE,110,0.0,0.0,83,0.00,CLR,,0.00,WeatherDisplay:10.37,2013-05-26 22:40:00,
2013-05-27 08:45:00,51.2,46.2,30.26,East,92,0.0,0.0,83,0.00,CLR,,0.00,WeatherDisplay:10.37,2013-05-26 22:45:00,
2013-05-27 08:50:00,51.5,46.5,30.26,ENE,74,0.0,0.0,83,0.00,CLR,,0.00,WeatherDisplay:10.37,2013-05-26 22:50:00,
2013-05-27 08:55:00,51.6,46.6,30.26,North,2,0.0,0.0,83,0.00,CLR,,0.00,WeatherDisplay:10.37,2013-05-26 22:55:00,
2013-05-27 09:00:00,52.2,47.2,30.26,WNW,282,0.0,0.0,83,0.00,CLR,,0.00,WeatherDisplay:10.37,2013-05-26 23:00:00,
2013-05-27 09:05:00,52.3,47.3,30.26,WNW,283,0.0,0.0,83,0.00,CLR,,0.00,WeatherDisplay:10.37,2013-05-26 23:05:00,
2013-05-27 09:10:00,52.5,47.5,30.26,NNE,26,0.0,2.0,83,0.00,CLR,,0.00,WeatherDisplay:10.37,2013-05-26 23:10:00,
2013-05-27 09:15:00,52.7,47.7,30.27,NE,46,0.0,0.0,83,0.00,CLR,,0.00,WeatherDisplay:10.37,2013-05-26 23:15:00,
2013-05-27 09:20:00,52.9,47.9,30.27,NE,55,0.0,0.0,83,0.00,CLR,,0.00,WeatherDisplay:10.37,2013-05-26 23:20:00,
2013-05-27 09:25:00,52.9,47.9,30.27,SSW,193,0.0,0.0,83,0.00,CLR,,0.00,WeatherDisplay:10.37,2013-05-26 23:25:00,
2013-05-27 09:30:00,52.9,47.9,30.28,SSW,212,0.0,4.0,83,0.00,CLR,,0.00,WeatherDisplay:10.37,2013-05-26 23:30:00,
2013-05-27 09:35:00,53.2,48.2,30.28,SSW,206,1.0,6.0,83,0.00,CLR,,0.00,WeatherDisplay:10.37,2013-05-26 23:35:00,
2013-05-27 09:40:00,53.4,48.6,30.28,SW,236,1.0,8.0,84,0.00,CLR,,0.00,WeatherDisplay:10.37,2013-05-26 23:40:00,
2013-05-27 09:45:00,53.7,48.9,30.28,WSW,237,2.0,9.0,84,0.00,CLR,,0.00,WeatherDisplay:10.37,2013-05-26 23:45:00,
2013-05-27 09:50:00,54.0,48.9,30.28,SW,216,3.0,6.0,83,0.00,CLR,,0.00,WeatherDisplay:10.37,2013-05-26 23:50:00,
2013-05-27 09:55:00,54.1,49.1,30.29,SSW,210,3.0,8.0,83,0.00,CLR,,0.00,WeatherDisplay:10.37,2013-05-26 23:55:00,
2013-05-27 10:00:00,54.3,49.3,30.29,SW,221,1.0,10.0,83,0.00,CLR,,0.00,WeatherDisplay:10.37,2013-05-27 00:00:00,
2013-05-27 10:05:00,54.4,49.4,30.28,SW,228,5.0,10.0,83,0.00,CLR,,0.00,WeatherDisplay:10.37,2013-05-27 00:05:00,
2013-05-27 10:10:00,54.7,49.6,30.29,SW,228,2.0,8.0,83,0.00,CLR,,0.00,WeatherDisplay:10.37,2013-05-27 00:10:00,
2013-05-27 10:15:00,55.0,49.6,30.28,SW,233,5.0,7.0,82,0.00,CLR,,0.00,WeatherDisplay:10.37,2013-05-27 00:15:00,
2013-05-27 10:20:00,55.1,49.7,30.28,SW,222,3.0,6.0,82,0.00,CLR,,0.00,WeatherDisplay:10.37,2013-05-27 00:20:00,
2013-05-27 10:25:00,55.4,50.0,30.28,SSW,210,6.0,8.0,82,0.00,CLR,,0.00,WeatherDisplay:10.37,2013-05-27 00:25:00,
2013-05-27 10:30:00,55.8,50.3,30.28,SW,219,5.0,10.0,82,0.00,CLR,,0.00,WeatherDisplay:10.37,2013-05-27 00:30:00,
2013-05-27 10:35:00,55.9,50.9,30.28,SW,229,5.0,8.0,83,0.00,CLR,,0.00,WeatherDisplay:10.37,2013-05-27 00:35:00,
2013-05-27 10:40:00,56.3,51.2,30.28,SW,228,6.0,8.0,83,0.00,CLR,,0.00,WeatherDisplay:10.37,2013-05-27 00:40:00,
2013-05-27 10:45:00,56.5,51.4,30.28,SW,225,5.0,8.0,83,0.00,CLR,,0.00,WeatherDisplay:10.37,2013-05-27 00:45:00,
2013-05-27 10:50:00,56.5,51.4,30.28,SW,217,2.0,7.0,83,0.00,CLR,,0.00,WeatherDisplay:10.37,2013-05-27 00:50:00,
2013-05-27 10:55:00,56.5,51.4,30.28,SW,218,3.0,9.0,83,0.00,CLR,,0.00,WeatherDisplay:10.37,2013-05-27 00:55:00,
2013-05-27 11:00:00,56.5,51.7,30.28,SW,231,3.0,6.0,84,0.00,CLR,,0.00,WeatherDisplay:10.37,2013-05-27 01:00:00,
2013-05-27 11:05:00,56.5,51.7,30.28,WSW,247,1.0,5.0,84,0.02,RA,,0.02,WeatherDisplay:10.37,2013-05-27 01:05:00,
2013-05-27 11:10:00,56.5,51.7,30.28,WSW,251,3.0,5.0,84,0.00,RA,,0.02,WeatherDisplay:10.37,2013-05-27 01:10:00,
2013-05-27 11:15:00,56.5,51.7,30.28,WSW,241,1.0,5.0,84,0.00,,,0.02,WeatherDisplay:10.37,2013-05-27 01:15:00,
2013-05-27 11:20:00,56.3,51.5,30.28,SW,235,1.0,4.0,84,0.02,RA,,0.04,WeatherDisplay:10.37,2013-05-27 01:20:00,
2013-05-27 11:25:00,56.4,51.9,30.27,SW,229,2.0,4.0,85,0.00,RA,,0.04,WeatherDisplay:10.37,2013-05-27 01:25:00,
2013-05-27 11:30:00,56.5,52.0,30.27,SW,236,1.0,3.0,85,0.00,,,0.04,WeatherDisplay:10.37,2013-05-27 01:30:00,
2013-05-27 11:35:00,56.5,52.0,30.27,WSW,242,0.0,3.0,85,0.00,,,0.04,WeatherDisplay:10.37,2013-05-27 01:35:00,
2013-05-27 11:40:00,56.5,52.0,30.26,WSW,240,1.0,4.0,85,0.02,RA,,0.06,WeatherDisplay:10.37,2013-05-27 01:40:00,
2013-05-27 11:45:00,56.8,52.4,30.26,WSW,239,0.0,4.0,85,0.00,RA,,0.06,WeatherDisplay:10.37,2013-05-27 01:45:00,
2013-05-27 11:50:00,56.8,52.7,30.27,WSW,242,0.0,2.0,86,0.00,,,0.06,WeatherDisplay:10.37,2013-05-27 01:50:00,
2013-05-27 11:55:00,57.0,52.9,30.27,WSW,244,1.0,6.0,86,0.00,,,0.06,WeatherDisplay:10.37,2013-05-27 01:55:00,
2013-05-27 12:00:00,57.0,52.9,30.26,WSW,247,0.0,2.0,86,0.00,,,0.06,WeatherDisplay:10.37,2013-05-27 02:00:00,
2013-05-27 12:05:00,57.1,53.0,30.26,WSW,242,0.0,0.0,86,0.02,RA,,0.08,WeatherDisplay:10.37,2013-05-27 02:05:00,
2013-05-27 12:10:00,57.4,53.2,30.26,West,262,0.0,2.0,86,0.00,RA,,0.08,WeatherDisplay:10.37,2013-05-27 02:10:00,
2013-05-27 12:15:00,57.4,53.5,30.26,West,265,1.0,6.0,87,0.00,,,0.08,WeatherDisplay:10.37,2013-05-27 02:15:00,
2013-05-27 12:20:00,57.4,53.5,30.26,WSW,244,0.0,3.0,87,0.00,,,0.08,WeatherDisplay:10.37,2013-05-27 02:20:00,
2013-05-27 12:25:00,57.5,53.6,30.26,WSW,250,1.0,4.0,87,0.00,,,0.08,WeatherDisplay:10.37,2013-05-27 02:25:00,
2013-05-27 12:30:00,57.6,53.7,30.26,WSW,251,1.0,5.0,87,0.00,,,0.08,WeatherDisplay:10.37,2013-05-27 02:30:00,
2013-05-27 12:35:00,57.6,53.8,30.26,WSW,242,1.0,4.0,87,0.00,,,0.08,WeatherDisplay:10.37,2013-05-27 02:35:00,
2013-05-27 12:40:00,57.7,53.9,30.25,WSW,243,1.0,5.0,87,0.00,,,0.08,WeatherDisplay:10.37,2013-05-27 02:40:00,
2013-05-27 12:45:00,57.8,54.0,30.25,WSW,240,0.0,5.0,87,0.00,,,0.08,WeatherDisplay:10.37,2013-05-27 02:45:00,
2013-05-27 12:50:00,57.9,54.1,30.25,WSW,237,0.0,3.0,87,0.00,,,0.08,WeatherDisplay:10.37,2013-05-27 02:50:00,
2013-05-27 12:55:00,57.9,54.1,30.25,WSW,248,2.0,4.0,87,0.00,,,0.08,WeatherDisplay:10.37,2013-05-27 02:55:00,
2013-05-27 13:00:00,57.9,54.1,30.25,WSW,242,1.0,4.0,87,0.00,,,0.08,WeatherDisplay:10.37,2013-05-27 03:00:00,
2013-05-27 13:05:00,57.9,54.1,30.25,WSW,245,1.0,4.0,87,0.00,CLR,,0.08,WeatherDisplay:10.37,2013-05-27 03:05:00,
2013-05-27 13:10:00,58.1,54.2,30.25,WSW,239,0.0,1.0,87,0.00,CLR,,0.08,WeatherDisplay:10.37,2013-05-27 03:10:00,
2013-05-27 13:15:00,57.9,54.1,30.25,SW,222,1.0,4.0,87,0.00,CLR,,0.08,WeatherDisplay:10.37,2013-05-27 03:15:00,
2013-05-27 13:20:00,57.9,54.1,30.25,WSW,244,0.0,3.0,87,0.00,CLR,,0.08,WeatherDisplay:10.37,2013-05-27 03:20:00,
2013-05-27 13:25:00,57.9,54.1,30.25,WSW,252,0.0,2.0,87,0.00,CLR,,0.08,WeatherDisplay:10.37,2013-05-27 03:25:00,
2013-05-27 13:30:00,58.0,54.1,30.25,WSW,242,0.0,3.0,87,0.00,CLR,,0.08,WeatherDisplay:10.37,2013-05-27 03:30:00,
2013-05-27 13:35:00,58.2,54.3,30.24,WSW,251,0.0,2.0,87,0.00,CLR,,0.08,WeatherDisplay:10.37,2013-05-27 03:35:00,
2013-05-27 13:40:00,58.3,54.4,30.24,WSW,253,0.0,3.0,87,0.00,CLR,,0.08,WeatherDisplay:10.37,2013-05-27 03:40:00,
2013-05-27 13:45:00,58.3,54.4,30.24,WSW,237,1.0,3.0,87,0.00,CLR,,0.08,WeatherDisplay:10.37,2013-05-27 03:45:00,
2013-05-27 13:50:00,58.3,54.5,30.24,SW,234,1.0,3.0,87,0.00,CLR,,0.08,WeatherDisplay:10.37,2013-05-27 03:50:00,
2013-05-27 13:55:00,58.5,54.7,30.24,WSW,247,0.0,3.0,87,0.00,CLR,,0.08,WeatherDisplay:10.37,2013-05-27 03:55:00,
2013-05-27 14:00:00,58.6,54.8,30.23,WSW,244,1.0,5.0,87,0.00,CLR,,0.08,WeatherDisplay:10.37,2013-05-27 04:00:00,
2013-05-27 14:05:00,58.7,54.8,30.23,WSW,242,1.0,5.0,87,0.00,CLR,,0.08,WeatherDisplay:10.37,2013-05-27 04:05:00,
2013-05-27 14:10:00,58.8,55.0,30.23,WSW,248,1.0,5.0,87,0.00,CLR,,0.08,WeatherDisplay:10.37,2013-05-27 04:10:00,
2013-05-27 14:15:00,58.8,55.0,30.23,WSW,247,0.0,2.0,87,0.00,CLR,,0.08,WeatherDisplay:10.37,2013-05-27 04:15:00,
2013-05-27 14:20:00,58.8,55.0,30.23,WSW,244,0.0,3.0,87,0.00,CLR,,0.08,WeatherDisplay:10.37,2013-05-27 04:20:00,
2013-05-27 14:25:00,58.8,55.0,30.23,West,261,0.0,2.0,87,0.00,CLR,,0.08,WeatherDisplay:10.37,2013-05-27 04:25:00,
2013-05-27 14:30:00,58.9,55.1,30.23,West,264,0.0,0.0,87,0.00,CLR,,0.08,WeatherDisplay:10.37,2013-05-27 04:30:00,
2013-05-27 14:35:00,59.0,55.2,30.23,West,261,0.0,0.0,87,0.00,CLR,,0.08,WeatherDisplay:10.37,2013-05-27 04:35:00,
2013-05-27 14:40:00,59.1,55.2,30.23,WSW,237,0.0,12.0,87,0.00,CLR,,0.08,WeatherDisplay:10.37,2013-05-27 04:40:00,
2013-05-27 14:45:00,59.2,55.3,30.23,SW,230,0.0,2.0,87,0.00,CLR,,0.08,WeatherDisplay:10.37,2013-05-27 04:45:00,
2013-05-27 14:50:00,59.2,55.3,30.23,WSW,257,0.0,2.0,87,0.00,CLR,,0.08,WeatherDisplay:10.37,2013-05-27 04:50:00,
2013-05-27 14:55:00,59.2,55.4,30.24,WSW,252,0.0,2.0,87,0.00,CLR,,0.08,WeatherDisplay:10.37,2013-05-27 04:55:00,
2013-05-27 15:05:00,59.7,55.8,30.24,West,279,0.0,2.0,87,0.00,CLR,,0.08,WeatherDisplay:10.37,2013-05-27 05:05:00,
2013-05-27 15:10:00,59.9,56.0,30.24,West,267,0.0,2.0,87,0.00,CLR,,0.08,WeatherDisplay:10.37,2013-05-27 05:10:00,
2013-05-27 15:15:00,60.1,55.9,30.24,West,266,0.0,2.0,86,0.00,CLR,,0.08,WeatherDisplay:10.37,2013-05-27 05:15:00,
2013-05-27 15:20:00,60.2,56.0,30.24,West,264,0.0,4.0,86,0.00,CLR,,0.08,WeatherDisplay:10.37,2013-05-27 05:20:00,
2013-05-27 15:30:00,60.4,56.1,30.24,WSW,241,0.0,2.0,86,0.00,CLR,,0.08,WeatherDisplay:10.37,2013-05-27 05:30:00,
2013-05-27 15:35:00,60.2,55.7,30.23,WSW,246,1.0,3.0,85,0.00,CLR,,0.08,WeatherDisplay:10.37,2013-05-27 05:35:00,
2013-05-27 15:40:00,60.4,55.9,30.24,WSW,257,0.0,2.0,85,0.00,CLR,,0.08,WeatherDisplay:10.37,2013-05-27 05:40:00,
2013-05-27 15:45:00,60.4,55.9,30.24,West,267,0.0,1.0,85,0.00,CLR,,0.08,WeatherDisplay:10.37,2013-05-27 05:45:00,
2013-05-27 15:50:00,60.4,55.9,30.24,WNW,301,0.0,0.0,85,0.00,CLR,,0.08,WeatherDisplay:10.37,2013-05-27 05:50:00,
2013-05-27 15:55:00,60.4,55.9,30.23,NNW,328,0.0,0.0,85,0.00,CLR,,0.08,WeatherDisplay:10.37,2013-05-27 05:55:00,
2013-05-27 16:00:00,60.4,55.9,30.24,NW,326,0.0,0.0,85,0.00,CLR,,0.08,WeatherDisplay:10.37,2013-05-27 06:00:00,
2013-05-27 16:05:00,60.4,55.6,30.24,WNW,288,0.0,0.0,84,0.00,CLR,,0.08,WeatherDisplay:10.37,2013-05-27 06:05:00,
2013-05-27 16:10:00,60.4,55.6,30.24,WSW,243,0.0,0.0,84,0.00,CLR,,0.08,WeatherDisplay:10.37,2013-05-27 06:10:00,
2013-05-27 16:15:00,60.4,55.6,30.24,WSW,240,0.0,0.0,84,0.00,CLR,,0.08,WeatherDisplay:10.37,2013-05-27 06:15:00,
2013-05-27 16:20:00,60.4,55.6,30.24,WSW,244,0.0,0.0,84,0.00,CLR,,0.08,WeatherDisplay:10.37,2013-05-27 06:20:00,
2013-05-27 16:25:00,60.4,55.6,30.24,WSW,240,0.0,0.0,84,0.00,CLR,,0.08,WeatherDisplay:10.37,2013-05-27 06:25:00,
2013-05-27 16:30:00,60.4,55.6,30.24,WSW,248,0.0,0.0,84,0.00,CLR,,0.08,WeatherDisplay:10.37,2013-05-27 06:30:00,
2013-05-27 16:35:00,60.4,55.6,30.24,WSW,245,0.0,2.0,84,0.00,CLR,,0.08,WeatherDisplay:10.37,2013-05-27 06:35:00,
2013-05-27 16:40:00,60.3,55.5,30.25,SW,223,0.0,1.0,84,0.00,CLR,,0.08,WeatherDisplay:10.37,2013-05-27 06:40:00,
2013-05-27 16:45:00,60.1,55.2,30.25,WSW,237,0.0,2.0,84,0.00,CLR,,0.08,WeatherDisplay:10.37,2013-05-27 06:45:00,
2013-05-27 16:50:00,60.1,55.2,30.25,SW,234,1.0,3.0,84,0.00,CLR,,0.08,WeatherDisplay:10.37,2013-05-27 06:50:00,
2013-05-27 16:55:00,59.9,55.1,30.25,SW,229,1.0,6.0,84,0.00,CLR,,0.08,WeatherDisplay:10.37,2013-05-27 06:55:00,
2013-05-27 17:00:00,59.7,54.9,30.25,SW,228,1.0,9.0,84,0.02,RA,,0.10,WeatherDisplay:10.37,2013-05-27 07:00:00,
2013-05-27 17:05:00,59.7,54.9,30.25,SSW,213,0.0,0.0,84,0.00,RA,,0.10,WeatherDisplay:10.37,2013-05-27 07:05:00,
2013-05-27 17:10:00,59.7,55.2,30.25,ESE,106,0.0,0.0,85,0.02,RA,,0.12,WeatherDisplay:10.37,2013-05-27 07:10:00,
2013-05-27 17:15:00,59.5,55.0,30.25,ESE,121,0.0,0.0,85,0.00,RA,,0.12,WeatherDisplay:10.37,2013-05-27 07:15:00,
2013-05-27 17:20:00,59.5,55.0,30.26,East,79,0.0,0.0,85,0.00,,,0.12,WeatherDisplay:10.37,2013-05-27 07:20:00,
2013-05-27 17:25:00,59.5,55.0,30.26,NNE,28,0.0,0.0,85,0.00,,,0.12,WeatherDisplay:10.37,2013-05-27 07:25:00,
2013-05-27 17:30:00,59.4,54.8,30.25,NE,50,0.0,1.0,85,0.00,,,0.12,WeatherDisplay:10.37,2013-05-27 07:30:00,
2013-05-27 17:35:00,59.2,54.7,30.25,SW,218,0.0,0.0,85,0.00,,,0.12,WeatherDisplay:10.37,2013-05-27 07:35:00,
2013-05-27 17:40:00,59.2,54.7,30.25,SW,233,0.0,0.0,85,0.00,,,0.12,WeatherDisplay:10.37,2013-05-27 07:40:00,
2013-05-27 17:45:00,59.2,54.7,30.25,West,265,0.0,0.0,85,0.00,,,0.12,WeatherDisplay:10.37,2013-05-27 07:45:00,
2013-05-27 17:50:00,59.0,54.5,30.25,NNW,340,0.0,0.0,85,0.00,,,0.12,WeatherDisplay:10.37,2013-05-27 07:50:00,
2013-05-27 17:55:00,58.8,54.3,30.25,WNW,291,0.0,0.0,85,0.00,,,0.12,WeatherDisplay:10.37,2013-05-27 07:55:00,
2013-05-27 18:00:00,58.8,54.3,30.25,SW,234,0.0,0.0,85,0.00,,,0.12,WeatherDisplay:10.37,2013-05-27 08:00:00,
2013-05-27 18:05:00,58.6,54.1,30.25,SW,230,0.0,2.0,85,0.00,,,0.12,WeatherDisplay:10.37,2013-05-27 08:05:00,
2013-05-27 18:10:00,58.5,54.4,30.25,WSW,245,0.0,0.0,86,0.00,CLR,,0.12,WeatherDisplay:10.37,2013-05-27 08:10:00,
2013-05-27 18:15:00,58.4,54.2,30.26,West,278,0.0,0.0,86,0.00,CLR,,0.12,WeatherDisplay:10.37,2013-05-27 08:15:00,
2013-05-27 18:20:00,58.3,54.1,30.26,WNW,301,0.0,0.0,86,0.00,CLR,,0.12,WeatherDisplay:10.37,2013-05-27 08:20:00,
2013-05-27 18:25:00,58.3,54.1,30.26,NW,309,0.0,0.0,86,0.00,CLR,,0.12,WeatherDisplay:10.37,2013-05-27 08:25:00,
2013-05-27 18:30:00,58.1,53.9,30.26,NW,325,0.0,0.0,86,0.00,CLR,,0.12,WeatherDisplay:10.37,2013-05-27 08:30:00,
2013-05-27 18:40:00,57.9,53.8,30.27,East,81,0.0,1.0,86,0.00,CLR,,0.12,WeatherDisplay:10.37,2013-05-27 08:40:00,
2013-05-27 18:46:00,57.9,53.8,30.27,East,91,0.0,0.0,86,0.00,CLR,,0.12,WeatherDisplay:10.37,2013-05-27 08:46:00,
2013-05-27 18:50:00,57.9,53.8,30.27,ENE,62,0.0,0.0,86,0.02,RA,,0.14,WeatherDisplay:10.37,2013-05-27 08:50:00,
2013-05-27 18:55:00,57.9,53.8,30.27,NE,50,0.0,0.0,86,0.00,RA,,0.14,WeatherDisplay:10.37,2013-05-27 08:55:00,
2013-05-27 19:00:00,57.9,53.8,30.27,NE,45,0.0,0.0,86,0.00,,,0.14,WeatherDisplay:10.37,2013-05-27 09:00:00,
2013-05-27 19:05:00,57.9,53.8,30.27,SE,127,0.0,3.0,86,0.00,,,0.14,WeatherDisplay:10.37,2013-05-27 09:05:00,
2013-05-27 19:10:00,57.9,53.8,30.27,SSW,202,0.0,0.0,86,0.02,RA,,0.16,WeatherDisplay:10.37,2013-05-27 09:10:00,
2013-05-27 19:15:00,57.9,53.8,30.27,SSW,202,0.0,0.0,86,0.00,RA,,0.16,WeatherDisplay:10.37,2013-05-27 09:15:00,
2013-05-27 19:20:00,57.9,53.8,30.27,SW,222,0.0,0.0,86,0.02,RA,,0.18,WeatherDisplay:10.37,2013-05-27 09:20:00,
2013-05-27 19:25:00,57.9,53.8,30.27,WSW,246,1.0,4.0,86,0.02,RA,,0.20,WeatherDisplay:10.37,2013-05-27 09:25:00,
2013-05-27 19:30:00,57.9,54.1,30.27,West,267,0.0,2.0,87,0.00,RA,,0.20,WeatherDisplay:10.37,2013-05-27 09:30:00,
2013-05-27 19:35:00,57.9,54.1,30.26,West,273,0.0,0.0,87,0.00,,,0.20,WeatherDisplay:10.37,2013-05-27 09:35:00,
2013-05-27 19:40:00,57.9,54.1,30.27,WSW,251,0.0,1.0,87,0.00,,,0.20,WeatherDisplay:10.37,2013-05-27 09:40:00,
2013-05-27 19:45:00,57.9,54.1,30.27,West,267,0.0,1.0,87,0.00,,,0.20,WeatherDisplay:10.37,2013-05-27 09:45:00,
2013-05-27 19:50:00,57.9,54.1,30.27,West,273,0.0,2.0,87,0.00,,,0.20,WeatherDisplay:10.37,2013-05-27 09:50:00,
2013-05-27 19:55:00,57.9,54.1,30.27,WSW,252,1.0,2.0,87,0.00,,,0.20,WeatherDisplay:10.37,2013-05-27 09:55:00,
2013-05-27 20:00:00,57.9,54.0,30.28,WSW,247,0.0,4.0,87,0.00,,,0.20,WeatherDisplay:10.37,2013-05-27 10:00:00,
2013-05-27 20:05:00,57.7,53.9,30.28,WSW,247,0.0,2.0,87,0.00,,,0.20,WeatherDisplay:10.37,2013-05-27 10:05:00,
2013-05-27 20:10:00,57.7,53.9,30.28,West,265,0.0,0.0,87,0.00,,,0.20,WeatherDisplay:10.37,2013-05-27 10:10:00,
2013-05-27 20:15:00,57.7,53.9,30.28,NNW,339,0.0,0.0,87,0.00,,,0.20,WeatherDisplay:10.37,2013-05-27 10:15:00,
2013-05-27 20:20:00,57.6,53.8,30.27,North,354,0.0,0.0,87,0.00,,,0.20,WeatherDisplay:10.37,2013-05-27 10:20:00,
2013-05-27 20:25:00,57.6,53.7,30.28,NW,326,0.0,0.0,87,0.00,CLR,,0.20,WeatherDisplay:10.37,2013-05-27 10:25:00,
2013-05-27 20:30:00,57.4,53.5,30.28,WNW,301,0.0,0.0,87,0.00,CLR,,0.20,WeatherDisplay:10.37,2013-05-27 10:30:00,
2013-05-27 20:35:00,57.4,53.5,30.29,West,267,0.0,0.0,87,0.00,CLR,,0.20,WeatherDisplay:10.37,2013-05-27 10:35:00,
2013-05-27 20:40:00,57.3,53.5,30.29,WSW,251,0.0,0.0,87,0.00,CLR,,0.20,WeatherDisplay:10.37,2013-05-27 10:40:00,
2013-05-27 20:45:00,57.3,53.4,30.28,WSW,249,0.0,0.0,87,0.00,CLR,,0.20,WeatherDisplay:10.37,2013-05-27 10:45:00,
2013-05-27 20:50:00,57.4,53.5,30.28,WSW,249,0.0,0.0,87,0.00,CLR,,0.20,WeatherDisplay:10.37,2013-05-27 10:50:00,
2013-05-27 20:55:00,57.0,53.2,30.28,WSW,237,0.0,0.0,87,0.00,CLR,,0.20,WeatherDisplay:10.37,2013-05-27 10:55:00,
2013-05-27 21:00:00,57.0,53.2,30.28,SW,226,0.0,0.0,87,0.00,CLR,,0.20,WeatherDisplay:10.37,2013-05-27 11:00:00,
2013-05-27 21:05:00,57.0,53.2,30.28,SW,225,0.0,0.0,87,0.00,CLR,,0.20,WeatherDisplay:10.37,2013-05-27 11:05:00,
2013-05-27 21:10:00,57.0,53.2,30.28,SW,219,0.0,0.0,87,0.00,CLR,,0.20,WeatherDisplay:10.37,2013-05-27 11:10:00,
2013-05-27 21:15:00,57.0,53.2,30.27,SSW,208,0.0,0.0,87,0.00,CLR,,0.20,WeatherDisplay:10.37,2013-05-27 11:15:00,
2013-05-27 21:20:00,57.0,53.2,30.28,SSW,210,0.0,0.0,87,0.00,CLR,,0.20,WeatherDisplay:10.37,2013-05-27 11:20:00,
2013-05-27 21:25:00,56.8,53.0,30.28,SW,221,0.0,0.0,87,0.00,CLR,,0.20,WeatherDisplay:10.37,2013-05-27 11:25:00,
2013-05-27 21:30:00,56.8,53.0,30.28,SW,225,0.0,0.0,87,0.00,CLR,,0.20,WeatherDisplay:10.37,2013-05-27 11:30:00,
2013-05-27 21:35:00,56.8,53.0,30.28,SW,225,0.0,0.0,87,0.00,CLR,,0.20,WeatherDisplay:10.37,2013-05-27 11:35:00,
2013-05-27 21:40:00,56.6,52.8,30.28,SW,224,0.0,0.0,87,0.00,CLR,,0.20,WeatherDisplay:10.37,2013-05-27 11:40:00,
2013-05-27 21:45:00,56.5,52.7,30.28,SW,216,0.0,0.0,87,0.00,CLR,,0.20,WeatherDisplay:10.37,2013-05-27 11:45:00,
2013-05-27 21:50:00,56.5,52.7,30.27,SSW,206,0.0,0.0,87,0.00,CLR,,0.20,WeatherDisplay:10.37,2013-05-27 11:50:00,
2013-05-27 21:55:00,56.3,52.5,30.28,SSW,203,0.0,0.0,87,0.00,CLR,,0.20,WeatherDisplay:10.37,2013-05-27 11:55:00,
2013-05-27 22:00:00,56.3,52.5,30.27,SSW,212,0.0,0.0,87,0.00,CLR,,0.20,WeatherDisplay:10.37,2013-05-27 12:00:00,
2013-05-27 22:05:00,56.1,52.3,30.28,South,187,0.0,0.0,87,0.00,CLR,,0.20,WeatherDisplay:10.37,2013-05-27 12:05:00,
2013-05-27 22:10:00,56.1,52.3,30.28,South,176,0.0,0.0,87,0.00,CLR,,0.20,WeatherDisplay:10.37,2013-05-27 12:10:00,
2013-05-27 22:15:00,56.3,52.5,30.28,SSW,194,1.0,3.0,87,0.00,CLR,,0.20,WeatherDisplay:10.37,2013-05-27 12:15:00,
2013-05-27 22:20:00,56.3,52.5,30.28,SSW,200,0.0,0.0,87,0.00,CLR,,0.20,WeatherDisplay:10.37,2013-05-27 12:20:00,
2013-05-27 22:25:00,56.3,52.5,30.28,SSW,202,0.0,0.0,87,0.00,CLR,,0.20,WeatherDisplay:10.37,2013-05-27 12:25:00,
2013-05-27 22:30:00,56.5,52.7,30.28,South,183,0.0,0.0,87,0.00,CLR,,0.20,WeatherDisplay:10.37,2013-05-27 12:30:00,
2013-05-27 22:35:00,56.5,52.7,30.28,ENE,60,0.0,0.0,87,0.00,CLR,,0.20,WeatherDisplay:10.37,2013-05-27 12:35:00,
2013-05-27 22:40:00,56.5,52.7,30.28,North,1,0.0,0.0,87,0.00,CLR,,0.20,WeatherDisplay:10.37,2013-05-27 12:40:00,
2013-05-27 22:45:00,56.5,52.7,30.28,NNW,348,0.0,0.0,87,0.00,CLR,,0.20,WeatherDisplay:10.37,2013-05-27 12:45:00,
2013-05-27 22:50:00,56.5,52.7,30.29,NE,34,0.0,0.0,87,0.00,CLR,,0.20,WeatherDisplay:10.37,2013-05-27 12:50:00,
2013-05-27 22:55:00,56.5,52.7,30.29,NE,43,0.0,0.0,87,0.00,CLR,,0.20,WeatherDisplay:10.37,2013-05-27 12:55:00,
2013-05-27 23:00:00,56.5,52.7,30.29,NE,42,0.0,0.0,87,0.00,CLR,,0.20,WeatherDisplay:10.37,2013-05-27 13:00:00,
2013-05-27 23:05:00,56.5,52.7,30.29,NE,54,0.0,0.0,87,0.00,CLR,,0.20,WeatherDisplay:10.37,2013-05-27 13:05:00,
2013-05-27 23:10:00,56.7,52.8,30.28,NE,54,0.0,0.0,87,0.00,CLR,,0.20,WeatherDisplay:10.37,2013-05-27 13:10:00,
2013-05-27 23:15:00,56.5,52.7,30.28,North,0,0.0,0.0,87,0.00,CLR,,0.20,WeatherDisplay:10.37,2013-05-27 13:15:00,
2013-05-27 23:20:00,56.5,52.7,30.28,NNE,31,0.0,0.0,87,0.00,CLR,,0.20,WeatherDisplay:10.37,2013-05-27 13:20:00,
2013-05-27 23:25:00,56.5,52.7,30.28,North,2,0.0,0.0,87,0.00,CLR,,0.20,WeatherDisplay:10.37,2013-05-27 13:25:00,
2013-05-27 23:30:00,56.5,52.7,30.29,NNW,340,0.0,0.0,87,0.00,CLR,,0.20,WeatherDisplay:10.37,2013-05-27 13:30:00,
2013-05-27 23:35:00,56.5,52.7,30.29,NNW,340,0.0,0.0,87,0.00,CLR,,0.20,WeatherDisplay:10.37,2013-05-27 13:35:00,
2013-05-27 23:40:00,56.3,52.5,30.29,SW,227,0.0,0.0,87,0.00,CLR,,0.20,WeatherDisplay:10.37,2013-05-27 13:40:00,
2013-05-27 23:45:00,56.3,52.5,30.28,SE,144,0.0,0.0,87,0.00,CLR,,0.20,WeatherDisplay:10.37,2013-05-27 13:45:00,
2013-05-27 23:50:00,56.3,52.5,30.29,SE,135,0.0,0.0,87,0.00,CLR,,0.20,WeatherDisplay:10.37,2013-05-27 13:50:00,
2013-05-27 23:55:00,56.3,52.5,30.28,SE,145,0.0,0.0,87,0.00,CLR,,0.20,WeatherDisplay:10.37,2013-05-27 13:55:00,